OE1TRI Weather Reports


Display with metric or nautical units.
time (UTC)temp
F
wind
direction
speed
MPH
gust
MPH
rain 1hr
in
rain 24hr
in
rain mn
in
humidity
%
barometer
mb
20260505205005 66 108 1.0 3.0 0.00 0.00 0.00 55 1011.5
20260505201004 67 264 3.0 7.0 0.00 0.00 0.00 53 1011.2
20260505200005 67 131 3.0 7.0 0.00 0.00 0.00 53 1010.8
20260505195005 67 78 0.0 5.0 0.00 0.00 0.00 53 1011.2
20260505194005 67 124 3.0 5.0 0.00 0.00 0.00 52 1010.8
20260505192005 67 171 5.0 8.0 0.00 0.00 0.00 52 1010.8
20260505185005 68 142 7.0 13.0 0.00 0.00 0.00 50 1010.5
20260505182005 69 210 3.0 9.0 0.00 0.00 0.00 48 1010.8
20260505180005 70 49 2.0 7.0 0.00 0.00 0.00 47 1010.5
20260505175004 71 127 6.0 9.0 0.00 0.00 0.00 46 1010.5
20260505174005 71 181 6.0 12.0 0.00 0.00 0.00 45 1010.5
20260505173005 72 160 7.0 14.0 0.00 0.00 0.00 45 1010.5
20260505165004 73 147 7.0 13.0 0.00 0.00 0.00 44 1010.8
20260505164004 74 109 7.0 13.0 0.00 0.00 0.00 43 1010.8
20260505163005 74 214 5.0 21.0 0.00 0.00 0.00 43 1010.8
20260505162005 74 265 6.0 7.0 0.00 0.00 0.00 43 1010.8
20260505153005 76 119 6.0 14.0 0.00 0.00 0.00 41 1011.2
20260505152005 77 251 10.0 17.0 0.00 0.00 0.00 40 1010.8
20260505124004 81 202 13.0 22.0 0.00 0.00 0.00 27 1012.2
20260505123005 81 112 12.0 17.0 0.00 0.00 0.00 27 1012.2
20260505121004 80 89 9.0 14.0 0.00 0.00 0.00 28 1012.5
20260505120005 80 173 8.0 14.0 0.00 0.00 0.00 28 1012.9
20260505115005 80 94 6.0 14.0 0.00 0.00 0.00 29 1012.9
20260505114005 80 118 6.0 13.0 0.00 0.00 0.00 30 1012.9
20260505113005 79 165 10.0 20.0 0.00 0.00 0.00 30 1012.9
20260505112004 79 178 6.0 12.0 0.00 0.00 0.00 32 1012.9
20260505111005 80 87 8.0 12.0 0.00 0.00 0.00 34 1013.2
20260505100004 74 192 1.0 5.0 0.00 0.00 0.00 44 1014.6
20260505094005 74 156 2.0 2.0 0.00 0.00 0.00 43 1014.9
20260505092005 72 38 0.0 5.0 0.00 0.00 0.00 46 1015.2
20260505091004 71 113 1.0 2.0 0.00 0.00 0.00 48 1015.6
20260505090005 71 101 1.0 2.0 0.00 0.00 0.00 47 1015.2
20260505085004 70 52 1.0 3.0 0.00 0.00 0.00 48 1015.2
20260505083005 68 73 0.0 1.0 0.00 0.00 0.00 52 1015.6
20260505080005 69 80 2.0 6.0 0.00 0.00 0.00 52 1015.6
20260505075005 67 156 2.0 6.0 0.00 0.00 0.00 54 1015.6
20260505074005 66 115 3.0 5.0 0.00 0.00 0.00 55 1015.6
20260505072005 66 69 1.0 2.0 0.00 0.00 0.00 54 1015.6
20260505071005 64 54 1.0 1.0 0.00 0.00 0.00 57 1015.9
20260505065004 63 77 1.0 2.0 0.00 0.00 0.00 59 1015.6
20260505064005 63 89 0.0 2.0 0.00 0.00 0.00 58 1015.6
20260505063005 62 9 1.0 2.0 0.00 0.00 0.00 59 1015.6
20260505062005 62 84 0.0 2.0 0.00 0.00 0.00 58 1015.9
20260505060005 62 82 1.0 2.0 0.00 0.00 0.00 58 1015.6
20260505055005 62 78 1.0 2.0 0.00 0.00 0.00 58 1015.2
20260505052005 60 130 1.0 2.0 0.00 0.00 0.00 61 1015.6
20260505051004 59 77 1.0 2.0 0.00 0.00 0.00 63 1015.9
20260505041004 57 141 2.0 3.0 0.00 0.00 0.00 65 1015.6
20260505035005 57 76 0.0 2.0 0.00 0.00 0.00 67 1015.6
20260505034005 57 78 1.0 2.0 0.00 0.00 0.00 67 1015.6
20260505033004 57 83 0.0 0.0 0.00 0.00 0.00 66 1015.6
20260505032005 58 81 0.0 0.0 0.00 0.00 0.00 66 1015.6
20260505031005 58 67 0.0 2.0 0.00 0.00 0.00 65 1015.6
20260505030005 58 85 1.0 2.0 0.00 0.00 0.00 65 1015.9
20260505025004 58 78 0.0 0.0 0.00 0.00 0.00 64 1015.6
20260505023004 58 69 0.0 0.0 0.00 0.00 0.00 64 1015.9
20260505022004 58 54 0.0 0.0 0.00 0.00 0.00 64 1015.9
20260505014005 61 57 0.0 0.0 0.00 0.00 0.00 58 1015.9
20260505011004 62 144 1.0 2.0 0.00 0.00 0.00 56 1015.9
20260505010005 62 103 2.0 2.0 0.00 0.00 0.00 56 1015.9
20260505005005 62 77 1.0 2.0 0.00 0.00 0.00 55 1016.3
20260505004004 63 122 1.0 2.0 0.00 0.00 0.00 55 1016.3
20260505001005 63 199 2.0 5.0 0.00 0.00 0.00 54 1016.3
20260504235005 64 72 0.0 2.0 0.00 0.00 0.00 53 1016.6
20260504233004 64 75 0.0 2.0 0.00 0.00 0.00 53 1016.6
20260504231005 64 62 0.0 0.0 0.00 0.00 0.00 53 1016.6
20260504230005 64 61 0.0 0.0 0.00 0.00 0.00 52 1016.9
20260504225005 65 86 0.0 1.0 0.00 0.00 0.00 52 1016.6
20260504224005 65 41 1.0 1.0 0.00 0.00 0.00 51 1016.6
20260504223004 66 77 0.0 2.0 0.00 0.00 0.00 50 1016.9
20260504222004 67 145 1.0 6.0 0.00 0.00 0.00 48 1016.9
20260504221005 67 110 5.0 6.0 0.00 0.00 0.00 48 1016.9
20260504220005 67 182 1.0 2.0 0.00 0.00 0.00 48 1017.3
20260504215005 67 124 1.0 5.0 0.00 0.00 0.00 48 1016.9
20260504214004 68 159 3.0 5.0 0.00 0.00 0.00 47 1016.9
20260504212005 68 147 2.0 6.0 0.00 0.00 0.00 46 1017.3
20260504210005 69 119 5.0 7.0 0.00 0.00 0.00 45 1017.3